Showing default

TEMPSAT 1, 1512

Orbit data source: Space-Track

TEMPSAT 1, 1512 is a payload satellite owned by NRL (US) in LEO that was launched on Fri, 13 Aug 1965 UTC via a THOR ABLESTAR launch vehicle from the Air Force Western Test Range (AFWTR). Payload-class satellites include a variety of spacecraft equipped with specific instruments for various scientific and technological missions. These include communications satellites like Starlink; space stations such as the ISS; scientific satellites like the Hubble; Earth observation satellites from companies like Planet Labs, Umbra, and HawkEye 360; GPS; miniature CubeSats for education and research; and military/defense satellites.

Loading next visibility...
Identifier
1512, 1965-065E
Orbit
LEO
Country
Flag of USUS
Related business
Manufacturer
NRL
Mission
Operational Defense Calibration
Bus & Motor
NRL 14", Unknown motor
Mass
9 kg wet, 9 kg dry
Launch date (UTC)
1965-08-13 (60 years ago)
Launch vehicle
THOR ABLESTAR
Launch site
Air Force Western Test Range (AFWTR)
Object type
Payload
Rocket body
Debris
Shape & HBR
Sphere, 0.2 m
Radar Cross Section
0.102 m², Small (<0.1 m²)

Expand to show TLE details & history
Last TLE update: 8 hours ago

TLE from 8 hours ago
0 TEMPSAT 1
1 01512U 65065E   25260.93047134  .00000039  00000-0  62548-4 0  9998
2 01512  89.9841 212.7527 0067875 294.0482 133.1783 13.33571810923763
Epoch: 2025-09-17T22:19Z
TLE epoch observation values (Epoch: 2025-09-17T22:19:52.723Z)
Latitude
67.86475°
Longitude
-119.27744°
Altitude
1,180.225 km
Speed
7.252 km/s
True Right ascension
14h 11m 09s
True Declination
67° 45' 04"
Sunlit
Object was in daylight at epoch
Visualization orbit readout
Latitude
Unknown
Longitude
Unknown
Altitude
Unknown
Speed
Unknown
Apparent Right ascension
Unknown
Apparent Declination
Unknown
Sunlit
N/A
Visualization observer readout
Local Sidereal Time
23:18:27
Azimuth
Unknown
Elevation
Unknown
Doppler factor
Unknown
Orbital elements
Apogee altitude
1,181.359 km
Perigee altitude
1,079.43 km
Semi-major axis
7,508.532 km
Eccentricity
0.00679
Inclination
89.9841°
RAAN
212.7527°
Arg. of periapsis
294.0482°
True anomaly
133.7422°
Mean anomaly
133.1783°
Eccentric anomaly
133.46058°
Mean motion
3.33588 °/min
Orbital period
107.92 mins
BSTAR
0.000062548
Loading maneuver chart data...
Computing Atmospheric mass density...
Loading historical data...
Loading historical data...
Loading historical data...
Loading historical data...
Loading historical data...
Loading historical data...
Loading historical data...

Documentation

Showing up to 5 results
|